Weather History for Frenchville, ME

Change the Weather History Date:

Saturday, January 19, 2013

  Actual Average Record
Temperature  
Mean Temperature 7 °F 8 °F  
Max Temperature 16 °F 17 °F 41 °F (1999)
Min Temperature -3 °F 0 °F -24 °F (1997)
Degree Days  
Heating Degree Days 58    
Month to date heating degree days 994  
Since 1 July heating degree days 4405  
Cooling Degree Days 0    
Month to date cooling degree days 0  
Year to date cooling degree days 0  
Moisture  
Dew Point 3 °F    
Average Humidity 81    
Maximum Humidity 92    
Minimum Humidity 57    
Precipitation  
Precipitation T in 0.02 in 0.53 in (1999)
Month to date precipitation 0.07 1.39  
Year to date precipitation 0.07 1.39  
Sea Level Pressure  
Sea Level Pressure 29.97 in    
Wind  
Wind Speed 6 mph (SE)    
Max Wind Speed 13 mph    
Max Gust Speed 17 mph    
Visibility 4 miles    
Events Snow    
T = Trace of Precipitation, MM = Missing Value Source: NWS Daily Summary

Daily Weather History Graph

Daily Weather History Graph

Search for Another Location

Airport:

Trip Planner

Search our weather history database for the weather conditions in past years. The results will help you decide how hot, cold, wet, or windy it might be!

Date:

Astronomy

Jan. 19, 2013 Rise Set
Actual Time 7:12 AM EST 4:16 PM EST
Civil Twilight 6:38 AM EST 4:50 PM EST
Nautical Twilight 6:00 AM EST 5:27 PM EST
Astronomical Twilight 5:24 AM EST 6:04 PM EST
Moon 10:45 AM EST (1/19) 12:36 AM EST (1/19)
Length of Visible Light 10h 11m
Length of Day
9h 03m
First Quarter, 57% of the Moon is Illuminated
Jan 19
First Quarter
Jan 26
Full
Feb 3
Last Quarter
Feb 10
New
Feb 17
First Quarter

Hourly Weather History & Observations

Time (EST) Temp. Windchill Dew Point Humidity Pressure Visibility Wind Dir Wind Speed Gust Speed Precip Events Conditions
12:53 AM -0.9 °F -11.0 °F -13.0 °F 57% 30.17 in 10.0 mi SSW 4.6 mph - N/A   Mostly Cloudy
1:53 AM -2.0 °F -17.7 °F -11.9 °F 63% 30.18 in 10.0 mi South 9.2 mph - N/A   Overcast
2:53 AM -2.0 °F -15.4 °F -11.9 °F 63% 30.16 in 10.0 mi SSE 6.9 mph - N/A   Overcast
3:46 AM -2.2 °F -15.6 °F -11.2 °F 66% 30.06 in 10.0 mi SSE 6.9 mph - N/A   Mostly Cloudy
3:53 AM -2.0 °F -13.9 °F -11.0 °F 66% 30.13 in 10.0 mi SSE 5.8 mph - N/A   Mostly Cloudy
4:07 AM -2.2 °F -14.2 °F -11.2 °F 66% 30.05 in 10.0 mi SSE 5.8 mph - N/A   Scattered Clouds
4:53 AM -0.9 °F -15.3 °F -9.0 °F 69% 30.11 in 10.0 mi SE 8.1 mph - N/A   Overcast
5:53 AM -0.0 °F -11.6 °F -8.0 °F 69% 30.09 in 9.0 mi SSE 5.8 mph - N/A   Overcast
6:53 AM 1.0 °F -10.3 °F -2.9 °F 83% 30.07 in 4.0 mi SSE 5.8 mph - 0.00 in Snow Light Snow
7:36 AM 1.4 °F -9.9 °F -0.4 °F 92% 29.98 in 2.5 mi SSE 5.8 mph - 0.00 in Snow Light Snow
7:44 AM 3.2 °F -7.8 °F -0.4 °F 85% 29.98 in 3.0 mi SSE 5.8 mph - 0.00 in Snow Light Snow
7:51 AM 3.2 °F -7.8 °F -0.4 °F 85% 29.98 in 2.0 mi SSE 5.8 mph - 0.00 in Snow Light Snow
7:53 AM 3.0 °F -8.0 °F -0.9 °F 84% 30.06 in 2.0 mi SSE 5.8 mph - 0.00 in Snow Light Snow
8:02 AM 3.2 °F -7.8 °F -0.4 °F 85% 29.98 in 1.5 mi SSE 5.8 mph - 0.00 in Snow Light Snow
8:11 AM 3.2 °F -7.8 °F -0.4 °F 85% 29.98 in 1.8 mi SSE 5.8 mph - 0.00 in Snow Light Snow
8:23 AM 3.2 °F -9.1 °F -0.4 °F 85% 29.98 in 2.5 mi SE 6.9 mph - 0.00 in Snow Light Snow
8:30 AM 3.2 °F -9.1 °F -0.4 °F 85% 29.98 in 3.0 mi SE 6.9 mph - 0.00 in Snow Light Snow
8:53 AM 3.9 °F -8.2 °F -0.0 °F 84% 30.04 in 4.0 mi SE 6.9 mph - 0.00 in Snow Light Snow
9:29 AM 5.0 °F -5.6 °F 1.4 °F 85% 29.96 in 2.0 mi SE 5.8 mph - 0.00 in Snow Light Snow
9:53 AM 6.1 °F -5.6 °F 1.9 °F 83% 30.02 in 2.0 mi SE 6.9 mph - 0.00 in Snow Light Snow
10:01 AM 6.8 °F -4.8 °F 1.4 °F 79% 29.95 in 1.8 mi SE 6.9 mph - 0.00 in Snow Light Snow
10:11 AM 6.8 °F -4.8 °F 1.4 °F 79% 29.94 in 3.0 mi SE 6.9 mph - 0.00 in Snow Light Snow
10:22 AM 6.8 °F -4.8 °F 3.2 °F 85% 29.93 in 2.0 mi SE 6.9 mph - 0.00 in Snow Light Snow
10:29 AM 6.8 °F -3.5 °F 3.2 °F 85% 29.93 in 1.8 mi SE 5.8 mph - 0.00 in Snow Light Snow
10:37 AM 6.8 °F -5.9 °F 3.2 °F 85% 29.93 in 2.0 mi SE 8.1 mph - 0.00 in Snow Light Snow
10:53 AM 8.1 °F -4.3 °F 3.0 °F 80% 29.99 in 1.8 mi SE 8.1 mph - 0.00 in Snow Light Snow
11:01 AM 8.6 °F -3.7 °F 3.2 °F 79% 29.91 in 1.2 mi SE 8.1 mph - 0.00 in Snow Light Snow
11:08 AM 8.6 °F -2.6 °F 3.2 °F 79% 29.90 in 1.5 mi SE 6.9 mph - 0.00 in Snow Light Snow
11:16 AM 8.6 °F -3.7 °F 3.2 °F 79% 29.89 in 1.8 mi SE 8.1 mph - 0.00 in Snow Light Snow
11:22 AM 8.6 °F -1.3 °F 3.2 °F 79% 29.89 in 3.0 mi SE 5.8 mph - 0.00 in Snow Light Snow
11:53 AM 10.0 °F - 6.1 °F 84% 29.94 in 6.0 mi Calm Calm - 0.00 in Snow Light Snow
12:53 PM 12.9 °F - 8.1 °F 81% 29.93 in 8.0 mi Calm Calm - 0.00 in   Overcast
1:51 PM 14.0 °F 8.2 °F 10.4 °F 86% 29.85 in 1.8 mi SE 3.5 mph - 0.00 in Snow Light Snow
1:53 PM 15.1 °F 9.4 °F 10.0 °F 80% 29.92 in 1.8 mi SE 3.5 mph - 0.00 in Snow Light Snow
2:03 PM 15.8 °F - 10.4 °F 79% 29.85 in 1.8 mi Calm Calm - 0.00 in Snow Light Snow
2:16 PM 15.8 °F - 10.4 °F 79% 29.85 in 2.0 mi Calm Calm - 0.00 in Snow Light Snow
2:21 PM 15.8 °F - 10.4 °F 79% 29.85 in 1.5 mi Calm Calm - 0.00 in Snow Light Snow
2:33 PM 15.8 °F - 10.4 °F 79% 29.86 in 2.0 mi Calm Calm - 0.00 in Snow Light Snow
2:50 PM 15.8 °F - 10.4 °F 79% 29.86 in 1.5 mi Calm Calm - 0.00 in Snow Light Snow
2:53 PM 16.0 °F - 10.9 °F 81% 29.92 in 1.2 mi Calm Calm - 0.00 in Snow Light Snow
3:23 PM 15.8 °F - 12.2 °F 86% 29.86 in 1.8 mi Calm Calm - 0.00 in Snow Light Snow
3:53 PM 14.0 °F 6.5 °F 10.0 °F 84% 29.94 in 1.8 mi North 4.6 mph - 0.00 in Snow Light Snow
4:12 PM 14.0 °F 6.5 °F 10.4 °F 86% 29.87 in 2.0 mi North 4.6 mph - 0.00 in Snow Light Snow
4:35 PM 14.0 °F 8.2 °F 10.4 °F 86% 29.87 in 3.0 mi North 3.5 mph - 0.00 in Snow Light Snow
4:53 PM 14.0 °F 5.1 °F 10.0 °F 84% 29.95 in 6.0 mi North 5.8 mph - 0.00 in Snow Light Snow
5:53 PM 12.9 °F 6.9 °F 10.0 °F 88% 29.97 in 3.0 mi North 3.5 mph - 0.00 in Snow Light Snow
6:16 PM 12.2 °F 2.9 °F 10.4 °F 92% 29.92 in 2.0 mi North 5.8 mph - 0.00 in Snow Light Snow
6:45 PM 14.0 °F 6.5 °F 10.4 °F 86% 29.94 in 3.0 mi NE 4.6 mph - 0.00 in Snow Light Snow
6:53 PM 14.0 °F 6.5 °F 10.0 °F 84% 30.00 in 3.0 mi NE 4.6 mph - 0.00 in Snow Light Snow
7:26 PM 12.2 °F - 10.4 °F 92% 29.94 in 7.0 mi Calm Calm - 0.00 in Snow Light Snow
7:53 PM 12.9 °F 6.9 °F 10.0 °F 88% 29.99 in 5.0 mi North 3.5 mph - 0.00 in Snow Light Snow
8:53 PM 14.0 °F 6.5 °F 10.0 °F 84% 30.00 in 10.0 mi NE 4.6 mph - 0.00 in   Overcast
9:53 PM 14.0 °F 1.2 °F 10.0 °F 84% 29.98 in 10.0 mi ENE 10.4 mph - 0.00 in   Overcast
10:53 PM 14.0 °F 2.0 °F 10.0 °F 84% 29.98 in 10.0 mi East 9.2 mph - 0.00 in   Overcast
11:53 PM 12.0 °F 0.5 °F 8.1 °F 84% 29.95 in 10.0 mi ENE 8.1 mph - N/A   Overcast